Location: Holyhead Bay
(53.3667°N, 4.6667°W)
Time: 18:01:40
(UTC+00:00)

CZ-2C R/B - Pass Details

Date: 24 November 2020
Orbit: 705 x 907 km, 98.1° (Epoch: 16 January)

Event Time Altitude Azimuth Distance (km) Brightness Sun altitude
Rises 18:30:26 0° 158° (SSE) 3,281 6.1 -20.2°
Reaches altitude 10° 18:32:48 10° 157° (SSE) 2,326 5.3 -20.5°
Maximum altitude 18:37:53 78° 73° (ENE) 773 2.8 -21.3°
Drops below altitude 10° 18:42:47 10° 348° (NNW) 2,234 5.5 -22.0°
Sets 18:45:01 0° 347° (NNW) 3,142 6.3 -22.3°
